TimePST,TemperatureF,Dew PointF,Humidity,Sea Level PressureIn,VisibilityMPH,Wind Direction,Wind SpeedMPH,Gust SpeedMPH,PrecipitationIn,Events,Conditions,WindDirDegrees,DateUTC
12:00 AM,26.6,23.0,86,30.31,9.0,Variable,2.3,-,N/A,,Mostly Cloudy,0,2013-03-04 08:00:00
1:00 AM,28.4,24.8,86,30.32,9.0,Calm,Calm,-,N/A,,Overcast,0,2013-03-04 09:00:00
2:00 AM,30.2,26.6,86,30.33,9.0,NNE,2.3,-,N/A,,Overcast,20,2013-03-04 10:00:00
3:00 AM,30.2,26.6,86,30.33,9.0,NNE,4.6,-,N/A,,Overcast,20,2013-03-04 11:00:00
4:00 AM,31,26,76,30.34,10,NNW,1.2,,,,Overcast,340,2013-03-04 12:00:00
4:00 AM,30.2,26.6,86,30.34,9.0,Variable,2.3,-,N/A,,Overcast,0,2013-03-04 12:00:00
5:00 AM,30.2,26.6,86,30.34,9.0,ENE,3.5,-,N/A,,Overcast,60,2013-03-04 13:00:00
6:00 AM,30.2,26.6,86,30.34,9.0,NNE,2.3,-,N/A,,Overcast,20,2013-03-04 14:00:00
7:00 AM,32.0,26.6,80,30.34,9.0,Calm,Calm,-,N/A,,Overcast,0,2013-03-04 15:00:00
8:00 AM,30.2,28.4,93,30.35,9.0,Calm,Calm,-,N/A,,Overcast,0,2013-03-04 16:00:00
9:00 AM,32.0,28.4,87,30.35,9.0,NE,3.5,-,N/A,,Overcast,40,2013-03-04 17:00:00
10:00 AM,35,29,70,30.35,10,NNW,6.9,,,,Overcast,340,2013-03-04 18:00:00
10:00 AM,35.6,28.4,75,30.35,9.0,NNW,6.9,-,N/A,,Overcast,340,2013-03-04 18:00:00
11:00 AM,39.2,26.6,61,30.32,9.0,North,8.1,-,N/A,,Overcast,350,2013-03-04 19:00:00
12:00 PM,39.2,26.6,61,30.30,9.0,North,6.9,-,N/A,,Overcast,350,2013-03-04 20:00:00
1:00 PM,39.2,26.6,61,30.28,9.0,Variable,2.3,-,N/A,,Overcast,0,2013-03-04 21:00:00
2:00 PM,41.0,26.6,57,30.25,9.0,NE,4.6,-,N/A,,Overcast,50,2013-03-04 22:00:00
3:00 PM,42.8,24.8,49,30.23,9.0,NNW,4.6,-,N/A,,Overcast,330,2013-03-04 23:00:00
4:00 PM,41,27,46,30.21,10,North,8.1,,,,Overcast,350,2013-03-05 00:00:00
4:00 PM,41.0,26.6,57,30.21,9.0,North,8.1,-,N/A,,Overcast,350,2013-03-05 00:00:00
5:00 PM,39.2,26.6,61,30.20,9.0,North,8.1,-,N/A,,Overcast,360,2013-03-05 01:00:00
6:00 PM,39.2,26.6,61,30.19,9.0,NNE,3.5,-,N/A,,Overcast,20,2013-03-05 02:00:00
7:00 PM,35.6,28.4,75,30.18,9.0,South,2.3,-,N/A,,Overcast,180,2013-03-05 03:00:00
8:00 PM,35.6,28.4,75,30.17,9.0,Variable,2.3,-,N/A,,Overcast,0,2013-03-05 04:00:00
9:00 PM,35.6,28.4,75,30.16,9.0,Calm,Calm,-,N/A,,Overcast,0,2013-03-05 05:00:00
10:00 PM,33.8,28.4,81,30.17,9.0,NE,4.6,-,N/A,,Overcast,50,2013-03-05 06:00:00
11:00 PM,33.8,26.6,75,30.15,9.0,NE,3.5,-,N/A,,Overcast,40,2013-03-05 07:00:00